Probability
0 0 0 0 0 0 0 0 0 0 0 0 1 4 12 17 20 29 46 57 58 55 56 59 55 46 43 44 46 46 47 46 44 45 47 48 44 38 33 27 21 15 11 10
0 0 0 0 0 0 0 0 0 0 0 0 1 5 12 18 19 23 38 52 56 56 59 61 54 44 40 42 43 44 44 42 41 42 44 47 45 37 30 24 19 14 10 9
0 0 0 0 0 0 0 0 0 0 0 0 1 5 12 17 18 20 30 44 51 53 59 59 52 42 38 40 42 41 38 35 35 36 38 39 37 30 24 20 16 11 8 7
0 0 0 0 0 0 0 0 0 0 0 0 0 3 8 12 16 22 31 37 41 45 49 51 47 39 36 37 40 38 33 30 31 32 31 30 25 21 19 17 13 9 6 5
0 0 0 0 0 0 0 0 0 0 0 0 0 1 3 5 11 23 33 34 32 33 36 40 40 34 29 29 33 34 32 30 30 29 28 25 21 19 16 13 11 7 4 2
0 0 0 0 0 0 0 0 0 0 0 0 0 0 0 1 6 19 31 34 29 27 29 32 32 27 22 21 23 27 30 30 28 26 25 24 23 20 16 12 9 6 2 1
0 0 0 0 0 0 0 0 0 0 1 0 0 0 0 1 3 13 26 31 26 24 27 28 26 22 18 17 17 20 25 27 25 22 20 22 24 20 15 12 9 5 2 1
0 0 0 0 0 0 0 0 0 0 0 0 0 1 1 1 3 8 19 25 21 20 24 25 22 20 17 14 13 16 20 22 21 17 15 18 19 16 13 12 11 7 5 5
0 0 0 0 0 0 0 0 0 0 0 0 1 1 1 2 3 6 14 20 20 19 22 22 19 19 17 13 13 15 17 18 17 15 12 12 12 12 11 13 14 13 12 12
0 0 0 0 0 0 0 0 0 0 0 0 0 1 2 3 4 5 12 22 25 23 23 22 20 18 16 14 14 16 15 15 15 13 9 8 9 10 10 12 14 16 17 16
0 0 0 0 0 0 0 0 0 0 0 0 0 0 2 2 2 4 12 24 30 27 26 26 24 19 15 13 13 13 12 12 12 11 9 8 8 9 10 11 13 16 18 18
0 0 0 0 0 0 0 0 0 0 0 0 0 1 2 1 1 3 13 28 36 36 33 32 30 25 18 14 11 9 9 9 9 9 9 10 12 13 14 14 14 16 18 18
0 0 0 0 1 0 0 0 0 0 0 0 0 1 3 3 4 7 17 33 43 44 44 42 40 34 25 18 13 9 8 8 8 8 11 13 16 18 19 18 16 17 18 18
0 0 0 0 0 0 0 0 0 0 0 0 0 1 4 6 10 16 24 35 43 49 54 57 54 46 36 27 21 16 13 12 11 11 14 17 19 21 22 21 21 19 16 14
0 0 0 0 0 0 0 0 0 0 0 0 0 1 6 12 18 26 34 39 44 52 62 68 68 62 51 41 34 27 22 20 20 20 21 22 23 23 23 24 24 22 17 13
1 1 0 0 0 0 0 0 0 0 0 0 0 2 7 16 26 35 42 46 50 58 67 75 78 73 64 53 44 36 31 30 31 30 28 28 27 25 25 25 25 23 19 15
2 2 1 1 1 0 0 0 0 0 0 1 2 6 12 23 35 42 47 52 59 66 74 80 81 78 72 62 52 45 41 40 39 37 34 31 28 26 26 25 23 21 18 14
2 3 3 2 1 0 0 1 0 0 1 5 9 14 22 33 42 47 53 61 68 73 77 80 79 76 73 67 61 55 50 46 44 42 39 33 27 25 25 23 20 16 13 10
1 3 4 3 2 1 1 1 0 1 6 15 23 25 29 35 40 48 59 68 72 72 73 73 71 70 69 67 64 58 52 49 47 44 39 32 25 20 17 15 13 10 7 6
1 1 2 2 2 1 1 0 0 2 10 24 32 29 27 30 36 45 56 62 63 61 63 63 61 61 62 62 61 56 49 46 43 38 31 23 16 11 7 5 4 4 3 3
0 0 0 1 1 0 0 0 3 7 14 22 24 20 19 23 31 37 43 46 45 46 49 51 50 49 51 52 51 47 40 32 27 22 16 10 6 3 1 0 0 1 2 2
0 0 0 1 1 2 2 2 5 12 13 11 9 10 13 16 20 25 28 28 28 30 34 37 38 38 37 38 36 31 24 16 11 8 6 3 1 0 0 0 0 0 1 1
0 0 1 2 3 4 5 5 7 7 6 3 2 5 10 12 13 16 19 19 19 20 22 25 27 27 26 24 21 16 11 7 4 2 1 0 0 0 0 0 0 0 0 0
0 0 1 2 3 5 6 6 5 2 0 0 1 4 7 9 10 12 14 14 13 13 14 16 17 17 16 14 11 8 4 3 1 0 0 0 0 0 0 0 0 0 0 0
0 0 1 1 2 3 5 4 3 1 0 1 2 4 4 6 8 9 9 9 8 8 8 8 8 8 8 7 5 3 1 1 0 0 0 0 0 0 0 0 0 0 0 0
0 1 2 2 1 2 4 3 1 0 0 1 2 2 2 5 7 7 6 5 5 5 5 4 4 4 4 4 2 1 0 0 0 0 0 0 0 0 0 0 0 0 0 0
Wind_Speed
15 14 15 16 17 18 17 16 13 10 9 9 9 8 4 4 4 5 6 7 8 8 9 10 10 10 10 10 10 10 9 9 7 6 5 5 5 4 4 5 6 4 3 4
16 19 20 19 18 18 16 15 15 12 11 10 10 10 4 4 2 3 7 8 9 10 10 10 10 11 11 10 10 10 10 10 9 6 5 4 5 4 4 4 4 4 4 4
21 18 18 17 17 18 16 14 15 14 13 13 13 10 2 3 4 5 7 9 9 10 11 11 11 10 10 10 11 11 11 10 9 8 5 4 4 3 4 5 4 3 4 3
20 20 20 16 15 16 15 15 16 16 14 12 11 8 2 4 6 7 7 9 9 9 10 10 10 10 10 10 10 10 10 10 9 9 7 8 6 5 6 5 4 4 3 4
17 17 17 18 16 15 16 15 15 15 14 14 12 10 3 5 5 8 10 10 10 10 10 9 9 9 9 9 10 10 10 9 9 8 8 7 6 5 5 5 6 4 3 3
20 17 15 15 15 15 15 15 15 13 11 13 11 11 6 5 5 8 10 11 9 10 10 9 8 7 8 9 9 10 10 9 9 8 8 7 6 6 7 7 7 5 4 3
21 20 18 14 13 14 13 11 10 11 9 8 7 7 6 3 5 7 10 11 11 10 9 9 8 8 8 9 10 10 11 9 9 9 8 7 6 6 7 7 7 5 5 4
17 16 18 17 15 13 13 14 12 12 9 5 4 7 6 2 6 8 10 12 11 11 10 9 8 8 8 8 9 10 10 9 9 9 7 6 6 5 5 5 5 4 3 5
14 12 12 15 16 16 16 14 15 14 14 11 7 8 7 4 5 7 11 12 11 10 11 10 10 9 9 9 9 9 10 9 10 9 8 6 6 4 5 5 4 4 3 6
18 16 10 8 10 14 16 14 9 10 10 11 8 4 1 3 2 2 7 10 11 11 11 12 10 10 10 9 9 9 9 9 10 10 9 8 6 5 4 4 3 3 3 4
16 15 14 10 10 11 12 14 12 9 9 10 9 3 3 3 5 7 9 11 12 12 12 12 11 11 11 11 10 10 9 9 10 10 8 8 7 7 5 4 3 2 3 5
13 12 13 13 10 11 11 12 12 10 10 10 10 4 3 5 6 4 5 11 13 12 12 13 12 11 11 11 11 10 10 10 9 9 8 8 7 7 6 6 5 4 3 3
6 8 11 13 12 10 9 10 9 9 9 10 11 5 1 2 3 2 2 8 10 11 12 13 12 11 10 10 10 10 10 11 10 9 9 8 7 6 6 5 5 4 3 3
5 9 12 13 6 3 6 9 10 10 10 11 11 7 3 1 1 3 4 3 7 9 10 11 11 10 9 9 9 9 10 10 11 10 9 8 7 6 6 5 5 4 4 3
7 12 14 15 13 9 8 8 10 13 13 13 11 10 5 1 2 4 4 6 7 10 9 10 11 10 9 9 9 9 9 8 9 9 9 8 7 7 6 6 5 5 5 4
8 10 12 13 13 13 10 10 12 14 14 15 14 12 6 2 2 2 2 6 8 10 11 10 11 11 10 9 8 8 8 8 8 8 8 8 8 7 7 7 7 6 5 5
7 8 11 13 13 14 14 11 11 11 12 12 12 9 8 6 5 3 1 2 6 8 10 10 10 8 8 8 8 7 7 8 8 7 7 8 8 7 7 8 8 7 7 7
5 5 6 11 12 16 10 9 9 9 9 8 9 9 9 6 6 6 4 2 3 5 8 8 8 9 8 8 8 7 8 8 8 8 7 7 8 8 8 8 9 9 8 8
6 5 7 9 12 14 10 7 7 6 6 8 8 9 9 7 4 5 8 7 7 6 6 6 7 8 8 8 9 9 9 9 9 8 8 9 10 10 10 10 10 9 9 9
7 6 8 10 12 12 5 4 6 5 3 10 10 10 10 9 5 4 9 10 9 8 7 6 7 9 8 9 10 10 10 10 10 10 11 11 11 11 11 11 10 8 8 9
7 8 11 12 12 7 5 5 5 5 4 8 8 8 8 6 5 4 7 8 8 9 9 9 9 9 8 9 11 11 11 11 12 13 13 12 12 11 11 10 8 8 8 8
5 7 9 9 9 4 8 6 6 6 7 8 8 7 5 3 4 5 6 7 8 9 10 10 11 10 9 10 12 14 13 12 13 13 13 12 11 10 10 9 8 7 7 8
6 5 4 3 1 4 6 6 6 7 7 8 8 6 3 2 4 5 6 7 8 9 10 11 13 13 11 11 13 15 13 13 14 14 13 12 11 9 8 8 7 5 4 4
5 4 5 4 1 3 6 7 8 8 8 7 6 4 1 3 6 7 8 9 10 10 10 11 14 14 13 12 13 13 13 12 13 13 11 10 10 10 9 7 7 7 5 5
5 4 4 4 2 4 6 8 8 8 7 6 4 2 2 6 8 9 10 11 11 11 11 12 13 14 14 12 13 12 12 12 12 11 10 10 10 11 11 11 10 10 9 8
2 2 2 1 3 3 4 6 6 5 4 3 6 7 7 7 10 12 12 11 12 12 12 12 13 14 13 13 13 11 10 10 10 8 8 7 8 8 9 10 10 15 12 14
Wind_Direction
224 235 244 250 252 262 275 288 290 284 290 298 300 301 275 152 155 147 151 155 155 163 159 156 164 167 172 169 167 169 169 170 170 174 168 164 162 160 144 134 134 148 149 136
235 234 244 257 269 274 276 283 287 291 298 299 299 298 309 117 146 162 159 161 161 162 159 160 166 172 180 175 170 169 167 170 178 178 167 164 157 161 141 120 135 151 147 156
231 244 242 242 257 269 272 274 278 285 291 289 289 294 289 152 166 184 164 158 165 166 165 166 173 178 178 176 174 174 171 173 177 171 161 154 146 148 135 133 149 154 153 154
240 246 257 258 257 264 267 267 273 280 285 288 296 294 204 185 185 194 175 163 166 161 160 168 175 178 178 175 172 168 170 174 174 173 170 166 168 170 157 150 146 151 164 159
244 243 248 257 259 263 270 276 279 283 287 286 287 284 238 189 201 189 172 163 163 158 160 164 172 174 171 173 171 167 169 173 175 175 173 178 170 163 151 140 143 158 168 170
259 260 250 251 258 258 261 269 274 274 275 274 285 281 258 202 172 167 157 151 154 153 152 151 159 160 167 170 171 168 168 170 172 175 176 183 170 167 151 149 153 168 162 175
250 255 255 251 253 255 244 251 261 257 252 272 322 291 273 168 140 134 140 143 150 152 149 151 160 162 168 169 169 164 162 163 169 171 176 179 168 164 157 159 162 176 167 169
239 238 237 235 237 253 249 242 251 270 276 281 277 253 261 207 113 119 130 138 148 155 152 154 156 154 162 167 165 158 158 163 167 166 168 167 166 173 167 172 164 183 173 154
256 249 229 218 223 232 250 250 253 262 271 272 242 235 220 173 126 128 133 141 153 153 149 151 153 152 156 164 162 159 159 162 165 165 162 162 171 182 166 169 181 178 164 148
258 280 271 209 214 227 238 253 264 264 272 280 275 273 348 35 21 134 150 154 151 150 150 150 153 153 152 154 154 158 162 161 162 163 168 169 174 176 168 176 186 176 153 134
239 260 270 246 214 232 225 238 254 274 278 281 287 289 126 149 222 220 186 157 151 159 156 151 153 152 152 154 157 161 162 163 165 167 169 164 168 172 172 173 172 180 157 151
228 244 258 260 249 238 241 241 240 252 268 281 289 295 169 172 205 233 184 149 151 158 154 151 150 152 155 157 159 160 163 166 167 167 165 163 163 168 172 176 177 178 161 157
276 254 252 253 250 242 247 256 266 264 263 266 273 273 173 60 44 42 80 131 144 153 151 149 150 153 156 157 156 158 161 163 166 165 162 162 165 167 171 171 169 162 154 155
285 265 259 258 265 285 283 283 290 287 265 264 273 281 281 335 81 63 61 117 148 147 147 150 148 149 154 153 154 157 162 163 164 163 162 162 169 169 172 167 159 155 151 146
259 253 255 265 268 257 243 251 266 274 278 280 287 288 280 200 139 133 159 183 166 153 161 159 153 151 155 154 156 158 158 158 157 156 159 162 166 160 159 153 148 141 137 136
225 259 269 268 265 267 251 242 242 251 263 273 281 287 314 349 52 89 167 184 174 166 171 166 154 154 154 152 152 152 150 147 144 150 156 156 152 149 146 142 137 128 118 105
228 230 255 266 272 279 267 260 261 268 271 278 287 313 336 343 0 25 293 215 176 162 160 155 148 146 147 148 147 146 142 139 140 141 139 138 143 141 137 134 125 118 111 102
260 263 256 261 267 266 274 288 285 284 290 310 321 336 345 15 30 19 22 66 98 126 138 139 143 141 145 145 139 132 131 130 130 127 129 132 132 124 118 114 109 105 100 97
235 241 259 262 261 265 272 296 307 302 303 352 353 351 354 358 352 38 34 55 76 82 98 118 128 131 134 138 135 129 127 125 122 118 114 115 115 111 107 106 104 101 100 98
227 210 239 253 260 268 298 1 8 322 291 34 24 11 358 344 314 31 43 49 60 71 79 92 109 108 113 118 120 119 118 114 109 105 100 99 102 104 106 105 104 102 101 100
218 221 234 249 257 262 350 353 319 284 6 19 14 7 358 358 10 45 53 56 58 72 79 86 94 100 102 110 113 110 106 104 103 101 97 95 95 97 99 98 99 102 102 101
230 241 241 247 252 255 24 11 10 10 355 353 351 354 356 36 69 75 75 74 74 82 90 92 91 92 94 100 105 102 99 100 99 98 97 95 92 95 97 96 96 100 109 115
239 250 267 254 258 60 46 27 14 359 344 339 334 336 356 100 112 103 97 94 89 89 94 96 94 89 85 89 99 100 99 100 98 97 96 96 94 90 94 98 98 100 102 115
271 272 269 269 265 37 35 23 19 8 351 340 333 328 339 136 125 114 110 105 99 93 93 94 95 94 90 88 92 98 101 103 103 103 102 100 95 87 75 71 69 62 48 58
282 293 280 277 338 3 25 22 7 358 354 350 352 15 119 129 124 117 111 106 101 96 92 92 95 96 96 95 95 98 101 102 102 101 101 98 93 90 78 70 59 65 52 53
312 327 306 329 28 2 4 10 358 353 1 46 79 78 83 105 111 108 104 102 101 100 97 96 96 96 95 94 92 89 91 96 102 104 108 109 108 107 105 99 81 57 67 70